Lapse_Rate
3.4 3.4 3.7 3.7 3.7 3.5 3.3 3.1 3.0 3.5 4.1 4.3 4.5 4.4 4.1 4.2 3.6 3.1 3.0 3.3 3.3 3.4 3.7 4.1 6.9 7.7 7.9 7.0 4.2 3.4 5.0 4.5 5.7 5.5 7.2 6.7 5.9 5.8 6.5 6.4 6.2 6.5 6.5 5.9 5.8 5.6 5.3
3.5 3.7 4.0 4.1 4.0 3.5 3.2 3.1 2.9 3.0 3.6 4.0 4.2 4.2 3.9 3.7 3.2 2.5 2.7 3.4 3.5 3.0 3.3 3.9 5.6 8.1 7.4 6.5 4.6 4.7 5.2 6.0 5.2 5.2 6.8 6.9 6.0 5.8 5.9 6.4 6.5 6.2 6.0 6.2 5.8 5.8 5.8
3.9 4.1 4.2 4.2 3.8 3.2 3.2 3.1 3.0 3.3 3.7 4.1 4.5 4.5 4.2 3.9 3.5 2.4 2.3 3.2 3.4 3.6 3.8 4.3 6.0 7.8 7.8 5.1 5.0 4.7 4.7 7.0 6.1 5.3 5.9 6.6 6.2 6.3 5.5 6.5 5.7 6.0 6.5 6.5 6.5 6.0 6.4
4.0 4.0 4.0 3.6 3.4 3.6 3.8 3.7 3.7 3.7 3.9 4.6 4.8 4.9 4.2 3.8 3.7 2.6 2.0 2.8 3.1 4.2 5.1 5.3 6.1 7.6 6.4 5.3 5.2 4.0 5.1 7.0 6.9 6.3 6.9 5.9 6.7 6.6 6.5 6.4 6.1 6.5 6.5 6.5 6.5 6.5 6.2
4.0 4.0 3.7 3.6 3.9 4.1 4.1 4.2 4.4 4.4 4.2 4.4 5.0 5.1 4.6 4.0 3.8 3.2 2.5 3.2 3.5 5.2 6.5 6.7 6.6 6.6 6.1 7.1 5.8 6.0 6.3 6.9 6.9 7.4 7.2 8.1 6.7 5.8 6.2 6.5 6.5 6.5 6.5 6.5 6.5 6.5 6.5
3.9 4.0 3.7 3.9 4.1 4.1 4.3 4.6 4.9 5.2 5.2 5.0 5.0 5.0 4.6 4.1 4.0 3.7 3.5 4.0 3.8 5.3 6.7 7.7 7.8 6.7 5.4 6.2 6.6 6.7 6.1 6.7 7.1 6.6 6.8 6.6 5.2 6.5 6.5 6.5 6.5 6.5 6.5 6.5 6.5 6.5 6.5
3.8 4.0 3.9 4.1 4.3 4.5 5.1 5.6 6.0 6.6 6.9 6.3 5.7 4.8 4.7 4.7 4.4 4.4 3.5 1.6 2.4 4.2 4.2 6.1 5.3 5.6 4.9 5.9 7.3 6.5 6.6 6.3 5.9 5.6 6.5 6.0 6.5 6.5 6.5 6.5 6.5 6.5 6.5 6.5 6.5 6.5 6.5
4.1 3.9 4.0 4.3 4.8 5.5 6.0 7.3 7.6 7.8 8.4 7.9 7.6 6.2 5.4 5.6 4.9 5.1 3.8 4.1 7.1 6.4 6.7 5.8 6.3 6.4 6.3 6.3 6.9 6.3 6.1 5.9 5.9 6.5 6.5 6.5 6.5 6.5 6.5 6.5 6.5 6.5 6.5 6.5 6.5 6.5 6.5
3.9 4.0 4.4 5.1 5.2 5.7 7.5 8.3 8.5 8.7 8.4 7.7 7.1 6.5 6.4 6.4 5.1 4.2 4.9 5.8 6.1 6.5 6.7 6.6 6.3 6.2 5.5 6.4 6.5 5.8 5.6 5.5 6.5 6.5 6.5 6.5 6.5 6.5 6.5 6.5 6.5 6.5 6.5 6.5 6.5 6.5 6.5
4.2 4.5 5.0 5.2 6.1 8.0 8.6 8.6 8.3 8.4 8.2 7.8 6.9 6.3 6.6 7.2 4.9 3.7 4.4 5.7 4.9 6.7 6.5 6.5 6.4 6.6 6.5 6.3 6.4 6.4 5.7 5.8 6.4 6.5 6.5 6.5 6.5 6.5 6.5 6.5 6.5 6.5 6.5 6.5 6.5 6.5 6.5
4.5 5.0 5.4 7.2 8.3 8.6 8.5 8.0 7.8 8.2 8.1 7.9 7.3 6.7 7.0 7.4 5.9 5.0 5.7 4.5 5.0 6.6 6.5 6.5 6.5 7.0 6.3 6.2 6.2 6.4 6.3 6.3 6.5 6.5 6.5 6.5 6.5 6.5 6.5 6.5 6.5 6.5 6.5 6.5 6.5 6.5 6.5
4.9 5.5 7.6 8.5 8.6 8.0 8.0 7.7 7.6 7.9 7.6 7.6 7.3 6.3 6.8 5.9 3.6 4.8 4.6 4.2 6.7 6.5 6.5 6.5 6.4 6.5 6.5 6.5 6.5 6.3 6.3 6.5 6.4 6.5 6.5 6.5 6.4 6.5 6.5 6.5 6.5 6.5 6.5 6.5 6.5 6.5 6.5
5.4 7.7 8.6 8.4 7.8 7.8 7.8 7.7 7.5 7.6 7.9 7.7 6.9 5.9 6.2 7.5 5.3 6.2 3.5 4.6 6.5 6.5 6.5 6.5 6.5 6.5 6.5 6.5 6.5 6.5 6.5 6.5 6.5 6.5 6.5 6.5 6.5 6.5 6.5 6.5 6.5 6.5 6.5 6.5 6.5 6.5 6.5
6.8 8.6 8.0 7.7 7.9 7.7 7.4 7.3 7.6 7.8 7.8 8.0 7.4 5.5 5.6 6.0 6.0 4.8 3.9 6.3 6.5 6.5 6.5 6.5 6.5 6.5 6.5 6.5 6.5 6.5 6.5 6.5 6.5 6.5 6.5 6.5 6.5 6.5 6.5 6.5 6.5 6.5 6.5 6.5 6.5 6.5 6.5
8.3 7.6 7.4 7.3 7.4 7.5 7.3 7.8 7.9 7.8 7.8 8.1 7.4 4.5 2.7 4.0 5.7 3.6 4.7 6.5 6.5 6.5 6.5 6.5 6.5 6.5 6.5 6.5 6.5 6.5 6.5 6.5 6.5 6.5 6.5 6.5 6.5 6.5 6.5 6.5 6.5 6.5 6.5 6.5 6.5 6.5 6.5
7.4 7.4 7.1 7.7 7.8 7.7 8.0 8.5 9.1 9.0 8.8 8.8 6.2 2.0 2.5 4.4 3.8 3.6 6.1 6.5 6.5 6.5 6.5 6.5 6.5 6.5 6.5 6.5 6.5 6.5 6.5 6.5 6.5 6.5 6.5 6.5 6.5 6.5 6.5 6.5 6.5 6.5 6.5 6.5 6.5 6.5 6.5
7.5 7.6 7.8 8.1 7.9 7.7 8.4 9.0 9.2 9.1 8.9 8.6 4.3 5.4 3.6 4.5 3.6 5.2 6.5 6.5 6.5 6.9 6.8 6.5 6.5 6.5 6.5 6.5 6.5 6.5 6.5 6.5 6.5 6.5 6.5 6.5 6.5 6.5 6.5 6.5 6.5 6.5 6.5 6.5 6.5 6.5 6.5
7.7 7.9 8.2 8.7 8.1 8.7 8.9 9.2 9.2 8.8 8.1 7.0 5.4 6.4 3.9 3.4 5.8 6.2 6.5 6.5 6.8 6.5 6.7 6.5 6.5 6.5 6.5 6.5 6.5 6.5 6.5 6.5 6.4 6.5 6.5 6.5 6.5 6.5 6.5 6.5 6.5 6.5 6.5 6.5 6.5 6.5 6.5
7.7 8.4 8.1 8.1 8.3 8.8 9.1 8.9 8.9 8.5 7.9 5.5 7.0 7.0 3.7 4.3 6.5 6.5 6.5 6.5 6.5 6.5 6.5 6.5 6.5 6.5 6.5 6.5 6.5 6.5 6.5 6.3 6.4 6.5 6.5 6.5 6.5 6.5 6.5 6.5 6.5 6.5 6.5 6.5 6.5 6.5 6.5
7.1 6.3 6.7 8.6 8.6 8.7 8.3 8.4 8.2 8.2 8.1 5.8 6.4 6.5 4.4 3.2 4.3 6.5 6.5 6.5 6.5 6.3 6.5 6.6 6.5 6.5 6.5 6.5 6.5 6.5 6.5 6.5 6.4 6.5 6.9 6.3 6.5 6.5 6.5 6.5 6.5 6.5 6.5 6.5 6.5 6.5 6.5
5.6 5.6 6.9 8.2 9.0 8.4 8.3 8.0 7.7 7.9 7.9 4.5 6.4 6.3 5.9 6.5 6.3 6.5 6.5 6.5 6.5 6.5 6.5 6.4 6.5 6.5 6.5 6.5 6.5 6.5 6.5 6.5 6.5 6.6 6.5 6.5 6.5 6.5 6.5 6.5 6.5 6.5 6.5 6.5 6.5 6.5 6.5
5.1 5.3 7.0 8.9 8.7 8.3 8.3 8.2 7.7 7.8 7.4 6.1 6.8 6.8 5.4 6.6 5.6 6.5 6.5 6.5 6.5 6.5 6.5 6.5 6.5 6.5 6.5 6.5 6.5 6.5 6.5 6.5 6.5 6.5 6.5 6.5 6.5 6.5 6.5 6.5 6.5 6.5 6.5 6.5 6.5 6.5 6.5
5.0 5.8 7.3 8.6 8.8 8.0 8.3 8.4 8.3 7.6 6.7 6.8 6.5 6.7 5.9 5.2 6.3 6.5 6.5 6.5 6.5 6.5 6.5 6.1 6.5 6.5 6.5 6.5 6.5 6.3 5.9 5.8 6.4 6.5 6.5 6.5 6.5 6.5 6.5 6.5 6.5 6.5 6.5 6.5 6.5 6.5 6.5
5.1 5.9 6.9 8.5 8.5 8.0 8.2 8.8 8.5 7.6 7.0 6.1 6.3 6.3 6.1 6.5 6.5 6.5 6.5 6.5 6.5 6.4 6.5 4.9 6.1 6.5 6.5 5.9 5.5 5.9 5.9 6.4 6.6 6.5 6.6 6.5 6.5 6.5 6.5 6.5 6.5 6.5 6.5 6.5 6.5 6.5 6.5
5.0 5.6 6.3 7.0 7.9 7.8 7.7 8.1 7.9 7.9 7.8 6.4 5.9 6.2 6.3 6.5 5.5 6.3 6.3 6.5 4.6 4.0 5.9 6.4 6.5 6.1 4.5 4.6 6.5 6.5 6.5 6.5 6.5 6.5 6.5 6.5 6.5 6.5 6.5 6.5 6.5 6.5 6.5 6.5 6.5 6.5 6.5
5.1 5.6 5.9 6.2 6.2 6.4 7.3 8.0 8.1 7.9 7.7 4.5 5.1 6.8 6.1 6.4 6.5 6.2 6.4 4.3 6.5 6.5 6.5 5.3 4.0 3.5 3.2 6.4 6.5 6.5 6.5 6.5 6.5 6.5 6.5 6.5 6.5 6.5 6.5 6.5 6.5 6.5 6.5 6.3 6.5 6.5 6.5
5.3 5.4 6.1 5.9 6.1 6.4 6.7 7.9 8.1 8.0 7.8 5.2 5.5 6.7 6.3 6.3 6.4 7.4 6.3 6.6 5.6 4.7 6.5 4.6 5.2 4.7 2.8 6.5 6.5 6.5 6.5 6.5 6.5 6.5 6.5 6.5 6.5 6.5 6.5 6.5 6.5 6.5 6.5 5.9 6.5 6.5 6.5
5.1 5.3 5.8 6.0 6.3 6.3 7.2 7.2 7.5 7.8 7.9 5.9 6.5 6.1 5.6 5.9 6.3 7.1 7.1 6.8 5.8 6.8 6.5 4.0 5.5 5.0 5.6 6.5 6.5 6.5 6.5 6.5 6.5 6.5 6.5 6.5 6.5 6.5 6.5 6.5 6.5 6.4 6.3 6.5 5.6 5.0 5.4
5.1 5.4 5.8 6.1 6.3 6.4 6.5 6.7 6.5 6.8 7.2 7.3 6.5 6.6 6.1 6.4 5.8 6.8 6.3 5.6 5.9 6.3 6.9 6.7 6.4 6.4 4.9 6.5 6.5 6.5 6.5 6.5 6.5 6.5 6.5 6.5 6.5 6.5 6.5 6.5 6.5 5.9 6.2 5.7 2.9 2.1 3.2
Wind_Speed
19 21 22 22 24 26 27 27 27 29 29 30 31 33 34 35 36 36 34 31 27 25 21 17 12 6 4 5 10 9 15 12 8 17 19 11 7 8 8 6 3 6 6 6 11 11 7
20 20 22 24 25 26 26 27 29 30 31 32 33 34 36 38 39 39 36 32 30 27 21 13 8 9 4 6 5 7 5 2 6 14 14 13 8 7 6 5 16 4 10 14 10 9 6
20 21 22 23 25 25 26 28 28 30 31 32 34 36 36 37 39 40 39 34 33 30 12 9 8 7 9 14 3 5 8 2 5 6 9 9 2 10 6 1 4 4 6 6 6 6 7
19 20 22 23 25 26 27 28 29 31 32 33 35 37 38 38 39 39 39 35 30 12 2 7 12 6 7 5 9 5 3 2 3 6 4 8 5 3 3 2 4 3 3 8 5 10 6
19 21 23 23 25 26 27 28 29 31 32 35 36 37 39 39 39 39 37 34 19 9 1 10 5 4 7 3 3 5 6 4 5 4 4 4 6 5 3 4 3 3 4 5 4 8 5
20 22 23 24 25 27 28 28 30 31 32 34 36 37 37 38 40 40 31 31 9 3 2 4 0 2 4 3 2 3 4 6 3 5 4 4 3 4 4 7 16 8 4 3 5 4 5
20 22 23 25 26 27 28 30 31 32 33 34 35 36 37 37 42 39 13 5 6 4 5 4 7 4 6 7 1 4 3 5 4 4 7 4 4 10 14 16 7 1 5 5 3 4 3
21 22 24 25 26 27 28 29 30 32 33 35 35 36 37 39 42 20 5 5 5 5 14 16 17 13 13 0 4 3 5 5 5 6 5 2 12 7 7 7 9 8 11 12 4 7 3
22 23 24 25 27 28 28 28 30 32 34 35 35 34 35 38 41 4 1 4 6 2 6 6 4 4 4 9 7 7 10 5 4 6 7 7 5 7 10 6 10 10 14 7 11 4 5
22 23 25 27 27 29 29 29 29 30 31 34 36 37 37 40 9 5 4 3 8 3 5 6 3 2 3 3 4 1 5 5 3 9 7 7 11 8 5 8 10 13 7 11 9 5 6
23 24 25 27 28 30 30 31 30 30 30 33 36 38 39 31 5 4 6 11 6 2 5 1 2 1 2 3 1 2 1 2 5 5 6 6 3 5 7 10 10 6 6 8 7 7 1
23 24 26 28 29 30 30 31 31 31 30 34 36 40 40 10 2 7 12 9 1 2 9 3 3 5 5 3 1 1 1 2 0 2 2 6 2 1 3 2 3 6 5 5 4 3 4
23 26 27 28 29 30 29 31 33 32 31 33 37 41 27 7 4 11 6 3 1 5 6 6 5 7 5 4 4 1 3 2 2 1 3 1 3 0 2 4 3 2 6 2 1 1 6
25 26 28 29 29 30 33 34 34 35 30 32 36 40 17 6 13 9 3 3 5 3 4 3 6 10 2 10 5 8 5 3 5 3 1 3 4 6 4 2 6 5 4 4 7 5 3
26 28 29 30 32 33 32 32 36 34 31 33 29 8 5 3 13 1 4 2 4 7 6 7 9 3 5 5 5 7 1 6 5 6 1 3 3 2 3 2 2 1 3 1 4 2 2
27 28 29 31 33 31 31 36 37 34 31 32 6 5 5 9 12 3 3 3 3 14 12 6 5 5 6 7 8 7 6 7 8 11 6 7 5 2 2 2 6 4 4 3 3 4 5
27 29 30 30 33 34 34 32 35 34 33 23 3 5 3 20 3 3 3 6 4 10 15 6 5 4 2 3 2 3 4 3 4 8 6 5 2 4 2 2 2 2 2 3 1 0 2
27 27 29 33 30 30 30 31 33 33 31 7 2 4 3 6 4 2 4 7 7 7 9 6 3 3 2 2 2 2 1 3 4 4 1 2 2 3 2 3 4 2 0 3 2 2 2
25 28 31 27 29 29 30 31 31 31 30 2 5 4 4 4 3 4 6 5 4 7 5 4 3 2 3 2 3 1 2 3 3 4 3 3 2 3 1 2 4 3 2 4 3 2 1
28 27 26 27 27 27 28 28 29 29 26 2 2 4 4 4 2 3 6 4 8 6 4 3 4 4 1 2 3 3 2 3 3 3 8 4 2 2 2 3 2 4 7 5 3 3 1
25 25 25 25 26 27 27 28 27 26 24 2 2 2 3 4 4 8 3 3 6 7 3 4 4 4 4 3 1 2 1 4 2 6 3 4 3 3 4 5 4 3 6 2 2 3 3
24 24 25 26 26 26 27 26 25 23 16 2 3 3 2 5 4 8 5 2 5 4 3 6 4 12 10 6 5 3 3 3 5 5 3 4 2 2 3 2 6 6 6 6 4 3 1
23 24 25 26 26 26 25 23 23 20 7 1 0 2 2 5 4 4 3 5 6 10 4 3 12 9 4 3 2 4 6 2 3 4 2 1 3 2 3 3 4 2 5 7 3 3 7
23 24 26 27 26 24 23 21 20 17 6 2 2 1 2 4 2 5 6 5 10 10 5 5 5 6 6 7 6 1 0 2 4 7 5 3 3 2 3 2 2 3 4 2 8 4 3
23 25 25 25 25 23 21 18 16 15 12 1 1 1 1 3 3 4 9 4 8 5 3 3 5 3 7 4 4 6 4 2 2 2 4 5 2 1 1 2 2 0 5 4 2 3 4
22 24 25 24 23 20 19 18 14 14 12 2 1 1 1 2 3 5 5 3 3 4 6 4 4 4 5 3 3 3 3 3 4 4 3 2 3 3 1 3 1 1 5 5 2 2 4
22 24 23 21 20 19 17 17 14 13 9 3 2 4 1 2 3 6 3 4 4 5 4 3 6 6 3 2 3 2 2 1 4 6 3 2 3 1 1 1 1 4 9 7 5 3 2
21 22 21 20 19 17 16 15 13 10 8 4 1 6 1 1 2 4 5 3 4 4 3 5 4 3 3 4 2 2 1 2 2 3 4 3 1 1 2 3 2 5 5 5 3 2 2
21 20 20 19 17 16 14 13 11 10 9 4 2 2 2 2 2 1 2 2 0 3 3 4 2 2 2 2 2 1 2 3 1 3 4 3 2 2 1 1 2 4 4 3 2 2 1
Wind_Direction
25 21 14 12 8 8 5 3 0 356 352 350 347 346 344 340 337 335 331 326 320 312 304 299 297 257 206 219 249 285 312 317 168 172 195 186 178 187 187 191 206 231 220 198 228 250 254
20 16 11 10 7 5 3 360 357 354 350 348 347 345 343 341 339 338 332 325 320 314 299 281 259 199 212 261 255 309 289 339 134 166 185 184 199 182 205 212 201 211 194 235 250 240 212
15 11 9 7 6 3 360 357 353 351 348 346 345 344 342 340 339 337 332 325 326 322 289 248 210 173 230 250 252 330 331 189 141 166 172 193 187 171 176 275 225 247 273 271 222 207 231
11 8 7 4 3 359 357 354 352 349 347 346 344 343 342 340 338 336 331 321 325 331 39 187 178 180 244 249 268 277 268 252 127 172 141 158 121 175 178 289 9 221 168 235 205 193 225
8 6 6 2 359 356 354 352 350 347 345 343 344 342 340 338 337 336 328 315 318 324 333 154 149 169 258 299 219 232 172 187 147 130 150 142 135 173 151 148 340 248 228 208 293 205 160
7 6 3 360 355 355 351 349 348 347 345 342 340 340 338 338 337 336 327 315 307 352 123 198 176 250 256 239 206 176 170 148 143 119 101 150 117 174 174 174 221 210 217 216 191 209 193
5 3 360 356 353 351 350 349 347 345 343 341 340 338 337 337 336 336 334 357 10 345 22 258 266 279 301 311 274 206 166 121 108 121 174 194 177 209 208 217 232 105 213 210 181 247 201
1 1 357 353 350 349 349 347 346 343 344 341 340 337 337 337 333 337 8 77 158 260 294 264 245 250 256 11 297 264 119 156 155 183 144 90 239 221 201 204 218 224 247 248 261 262 196
1 356 353 350 349 347 345 342 342 341 343 341 338 337 336 336 326 24 311 158 286 261 272 288 224 211 225 160 220 247 155 162 165 167 187 180 238 183 195 196 211 222 227 231 242 219 240
356 354 351 349 346 341 340 339 340 344 340 341 336 334 334 335 338 333 280 326 310 176 293 279 274 264 108 154 229 176 194 149 194 202 179 226 242 240 174 219 194 238 197 223 232 177 233
355 353 349 344 340 339 338 339 339 340 339 339 334 331 331 336 278 314 288 334 307 217 329 141 108 218 130 183 190 204 73 58 204 191 132 232 207 186 201 212 173 226 189 203 206 210 288
353 349 344 343 340 341 342 341 338 336 341 337 333 328 329 333 272 249 322 316 245 236 247 337 41 2 4 358 316 51 113 65 126 205 206 242 347 214 182 74 164 136 86 61 66 134 230
349 344 341 339 340 339 336 338 337 337 339 339 334 325 330 333 273 306 336 8 310 222 341 6 347 334 351 304 336 234 164 163 215 141 238 266 210 160 151 106 44 120 123 167 324 321 230
346 340 339 339 336 335 337 337 339 338 338 341 337 322 322 303 288 313 24 19 233 44 356 356 319 315 78 17 2 2 22 30 36 5 182 213 270 178 178 189 175 181 181 171 201 195 238
340 341 340 339 343 345 346 349 347 344 340 345 340 318 313 278 331 350 67 296 323 2 317 331 320 350 29 18 345 354 72 6 34 21 248 261 237 8 56 81 44 192 214 59 102 173 78
341 343 344 349 349 350 346 344 342 338 338 346 330 329 290 332 332 55 91 230 50 352 329 327 339 34 353 348 19 17 352 2 357 14 347 2 296 17 106 102 43 129 140 149 203 204 201
342 345 349 350 349 346 345 347 345 346 349 349 15 340 269 339 53 31 27 10 332 345 348 332 323 305 326 328 10 312 348 49 348 7 48 2 353 17 327 359 172 105 161 209 314 291 195
343 346 346 346 345 350 347 346 346 350 352 359 356 322 329 6 38 0 336 324 296 316 332 236 249 265 276 318 340 270 3 185 346 335 55 263 322 316 13 351 32 357 193 147 205 188 56
345 349 346 347 349 346 344 346 348 352 356 5 328 288 318 45 36 342 320 323 284 322 332 360 304 34 330 196 4 343 324 295 352 41 139 302 46 321 255 87 20 17 353 63 78 78 100
349 347 345 348 344 343 343 347 350 353 358 21 325 322 315 32 6 9 327 313 329 317 298 267 278 243 231 269 210 282 311 21 328 339 338 89 66 136 238 326 22 322 359 55 87 93 102
346 345 346 343 343 341 341 344 344 348 354 58 15 321 326 320 337 324 286 269 310 339 306 313 312 272 262 230 259 210 99 341 307 341 31 99 153 167 268 281 246 250 292 275 119 131 109
344 344 343 342 337 337 337 341 344 348 358 51 335 314 311 284 285 326 313 325 301 327 270 310 286 309 299 219 200 204 129 178 231 339 64 352 256 84 301 0 4 236 243 257 230 133 65
342 343 341 338 337 340 342 343 346 353 32 342 259 230 270 292 328 336 345 339 316 332 298 278 316 309 6 33 298 244 216 227 208 150 200 137 155 84 276 312 2 347 234 214 178 164 151
343 345 344 342 340 341 342 346 351 355 36 198 243 256 285 288 1 324 320 307 322 321 278 301 350 352 2 319 308 29 329 256 271 258 207 166 132 123 224 353 13 312 4 123 114 65 351
345 346 346 344 345 347 345 354 355 359 356 121 265 206 305 280 249 323 333 327 318 316 327 314 330 306 307 7 21 9 352 15 32 209 225 232 169 81 117 192 274 223 6 11 16 24 345
345 346 345 348 349 350 354 353 359 354 10 88 42 316 235 288 1 1 331 314 328 315 333 311 321 327 30 51 53 55 20 291 340 348 345 282 173 124 83 126 277 76 308 351 282 25 357
344 346 348 350 351 353 354 354 357 358 17 88 40 331 251 282 20 6 353 347 331 309 308 320 331 342 59 24 48 21 331 328 357 343 1 13 41 97 85 86 343 312 298 300 76 242 51
342 343 346 347 349 348 353 355 359 9 10 101 101 26 56 38 31 8 359 346 328 357 345 296 11 341 358 39 67 297 30 292 9 319 351 26 7 50 54 55 8 5 315 86 233 360 57
339 340 344 344 345 346 353 357 6 1 3 111 80 340 318 87 215 310 71 163 59 291 305 317 286 288 251 58 18 51 340 6 32 337 345 27 141 208 33 73 36 355 68 59 150 111 9